| time (UTC) | temp F | wind direction | speed MPH | gust MPH | rain 1hr in | rain 24hr in | rain mn in | humidity % | barometer mb |
| 20260505024525 | 42 | 49 | 4.0 | 7.0 | 0.00 | 0.00 | 0.00 | 48 | 1014.8 |
| 20260505023022 | 43 | 46 | 3.0 | 10.0 | 0.00 | 0.00 | 0.00 | 47 | 1014.6 |
| 20260505021520 | 44 | 33 | 3.0 | 9.0 | 0.00 | 0.00 | 0.00 | 45 | 1014.3 |
| 20260505020018 | 45 | 39 | 5.0 | 13.0 | 0.00 | 0.00 | 0.00 | 43 | 1014.1 |
| 20260505014516 | 47 | 47 | 8.0 | 17.0 | 0.00 | 0.00 | 0.00 | 40 | 1013.8 |
| 20260505013013 | 48 | 47 | 8.0 | 20.0 | 0.00 | 0.00 | 0.00 | 38 | 1013.5 |
| 20260505011512 | 49 | 41 | 8.0 | 20.0 | 0.00 | 0.00 | 0.00 | 35 | 1013.2 |
| 20260505010010 | 50 | 25 | 12.0 | 24.0 | 0.00 | 0.00 | 0.00 | 32 | 1012.9 |
| 20260505004510 | 51 | 35 | 10.0 | 21.0 | 0.00 | 0.00 | 0.00 | 30 | 1012.8 |
| 20260505003008 | 52 | 26 | 8.0 | 26.0 | 0.00 | 0.00 | 0.00 | 26 | 1012.7 |
| 20260505001507 | 52 | 18 | 15.0 | 23.0 | 0.00 | 0.00 | 0.00 | 25 | 1012.6 |
| 20260505000007 | 53 | 10 | 8.0 | 24.0 | 0.00 | 0.00 | 0.00 | 25 | 1012.4 |
| 20260504234506 | 52 | 31 | 11.0 | 23.0 | 0.00 | 0.00 | 0.00 | 24 | 1012.3 |
| 20260504233003 | 54 | 5 | 10.0 | 21.0 | 0.00 | 0.00 | 0.00 | 22 | 1012.3 |
| 20260504231502 | 54 | 31 | 12.0 | 25.0 | 0.00 | 0.00 | 0.00 | 22 | 1012.3 |
| 20260504230002 | 54 | 27 | 14.0 | 28.0 | 0.00 | 0.00 | 0.00 | 22 | 1012.0 |
| 20260504224612 | 54 | 5 | 7.0 | 22.0 | 0.00 | 0.00 | 0.00 | 24 | 1011.8 |
| 20260504223134 | 53 | 5 | 19.0 | 31.0 | 0.00 | 0.00 | 0.00 | 24 | 1011.9 |
| 20260504221558 | 54 | 21 | 10.0 | 27.0 | 0.00 | 0.00 | 0.00 | 24 | 1011.5 |
| 20260504220058 | 54 | 26 | 13.0 | 31.0 | 0.00 | 0.00 | 0.00 | 27 | 1011.5 |
| 20260504214556 | 54 | 45 | 14.0 | 27.0 | 0.00 | 0.00 | 0.00 | 28 | 1011.4 |
| 20260504213104 | 55 | 19 | 6.0 | 23.0 | 0.00 | 0.00 | 0.00 | 29 | 1011.5 |
| 20260504211554 | 55 | 324 | 6.0 | 18.0 | 0.00 | 0.00 | 0.00 | 30 | 1011.7 |
| 20260504210058 | 55 | 360 | 9.0 | 26.0 | 0.00 | 0.00 | 0.00 | 30 | 1011.7 |
| 20260504204554 | 53 | 354 | 5.0 | 24.0 | 0.00 | 0.00 | 0.00 | 34 | 1012.0 |
| 20260504203106 | 51 | 20 | 11.0 | 27.0 | 0.00 | 0.00 | 0.00 | 35 | 1012.0 |
| 20260504201555 | 53 | 10 | 12.0 | 27.0 | 0.00 | 0.00 | 0.00 | 33 | 1011.8 |
| 20260504200049 | 53 | 29 | 6.0 | 23.0 | 0.00 | 0.00 | 0.00 | 34 | 1011.7 |
| 20260504194546 | 54 | 341 | 7.0 | 22.0 | 0.00 | 0.00 | 0.00 | 34 | 1011.6 |
| 20260504193046 | 53 | 5 | 8.0 | 21.0 | 0.00 | 0.00 | 0.00 | 35 | 1011.6 |
| 20260504191548 | 53 | 18 | 9.0 | 25.0 | 0.00 | 0.00 | 0.00 | 34 | 1011.5 |
| 20260504190044 | 53 | 360 | 6.0 | 23.0 | 0.00 | 0.00 | 0.00 | 38 | 1011.5 |
| 20260504184537 | 52 | 327 | 8.0 | 25.0 | 0.00 | 0.00 | 0.00 | 39 | 1011.5 |
| 20260504183037 | 52 | 360 | 6.0 | 18.0 | 0.00 | 0.00 | 0.00 | 39 | 1011.6 |
| 20260504181543 | 51 | 31 | 8.0 | 23.0 | 0.00 | 0.00 | 0.00 | 41 | 1011.5 |
| 20260504180035 | 51 | 20 | 11.0 | 21.0 | 0.00 | 0.00 | 0.00 | 39 | 1011.6 |
| 20260504174533 | 52 | 14 | 5.0 | 23.0 | 0.00 | 0.00 | 0.00 | 40 | 1011.5 |
| 20260504173032 | 51 | 356 | 6.0 | 20.0 | 0.00 | 0.00 | 0.00 | 39 | 1011.3 |
| 20260504171530 | 51 | 25 | 10.0 | 21.0 | 0.00 | 0.00 | 0.00 | 40 | 1011.2 |
| 20260504081525 | 44 | 28 | 7.0 | 22.0 | 0.00 | 0.00 | 0.00 | 66 | 1009.6 |
| 20260504044601 | 53 | 24 | 6.0 | 15.0 | 0.00 | 0.00 | 0.00 | 40 | 1006.0 |
| 20260504043056 | 54 | 21 | 7.0 | 16.0 | 0.00 | 0.00 | 0.00 | 42 | 1005.7 |
| 20260504041554 | 55 | 27 | 6.0 | 15.0 | 0.00 | 0.00 | 0.00 | 43 | 1005.0 |
| 20260504040104 | 54 | 25 | 2.0 | 10.0 | 0.00 | 0.00 | 0.00 | 43 | 1004.4 |
| 20260504034611 | 54 | 17 | 0.0 | 3.0 | 0.00 | 0.00 | 0.00 | 42 | 1003.7 |
| 20260504033050 | 54 | 18 | 0.0 | 3.0 | 0.00 | 0.00 | 0.00 | 42 | 1003.2 |
| 20260504031550 | 55 | 18 | 0.0 | 2.0 | 0.00 | 0.00 | 0.00 | 42 | 1003.1 |
| 20260504030113 | 56 | 18 | 0.0 | 5.0 | 0.00 | 0.00 | 0.00 | 40 | 1003.0 |